Location: Wayah Bald
(35.1806°N, 83.5603°W)
Time: 12:06:07
(UTC-04:00)

Daily predictions for brighter satellites

Satellite Brightness Start Highest point End
(mag) Time Altitude Azimuth Time Altitude Azimuth Time Altitude Azimuth
Cosmos 2219 Rocket 4.4 21:13:24 10° NW 21:17:48 24° W 21:22:10 10° SSW
Delta 2 Rocket 4.1 21:16:01 10° WSW 21:21:24 65° SSE 21:27:08 10° E
Envisat 3.1 21:18:36 10° SSE 21:23:35 60° ENE 21:28:35 10° N
Meteor 1-24 Rocket 4.5 21:18:25 10° SSW 21:24:14 61° W 21:29:53 10° N
Cosmos 1939 Rocket 3.4 21:22:06 10° SE 21:25:54 43° ENE 21:29:46 10° N
YAOGAN 6 3.6 21:29:07 10° SE 21:32:20 30° ENE 21:35:36 10° N
Meteor 1-29 3.4 21:31:26 10° NNE 21:34:43 41° E 21:38:00 10° S
CZ-4B DEB 3.1 21:40:42 12° SE 21:43:12 40° ENE 21:46:01 10° N
Cosmos 2227 4.2 21:41:04 10° SSW 21:46:48 84° ESE 21:52:31 10° NNE
Cosmos 2208 Rocket 4.1 21:42:08 10° NNW 21:47:31 85° ENE 21:52:56 10° SSE
Resurs 01 Rocket 3.3 21:44:17 10° SSW 21:48:13 32° W 21:52:10 10° NW
Cosmos 1726 3.5 21:45:22 10° NNE 21:48:16 22° ENE 21:50:09 15° ESE
Atlas Centaur 2 2.9 21:46:09 10° WSW 21:48:56 18° SSW 21:51:08 12° SSE
Cosmos 1459 Rocket 4.0 21:46:20 10° N 21:52:32 64° E 21:58:37 10° SSE
Cosmos 1076 Rocket 3.6 21:48:24 10° S 21:52:45 87° W 21:57:08 10° N
USA 234 3.9 21:47:57 10° ENE 21:53:30 29° SE 21:59:01 10° S
SJ-11-01 4.4 21:50:10 10° SSE 21:54:54 85° WSW 21:59:41 10° NNW
Cosmos 1570 Rocket 4.2 21:50:02 10° NNW 21:55:19 73° WSW 22:00:31 10° S
Cosmos 2263 Rocket 2.8 21:53:40 10° SSE 21:58:34 33° ESE 22:03:30 10° NE
Meteor 2-17 Rocket 4.4 21:56:35 10° N 22:02:46 83° E 22:08:53 10° S
USA 186 4.2 22:05:11 10° WSW 22:05:38 10° W 22:06:03 10° W
ERS-1 Rocket 3.2 22:01:53 16° SE 22:05:43 54° ENE 22:10:38 10° N
Cosmos 371 Rocket 4.0 22:01:41 10° N 22:06:09 37° ENE 22:08:54 20° ESE
SAR-Lupe-4 3.5 22:03:19 15° SSE 22:06:12 89° W 22:09:48 10° NNW
Cosmos 2100 Rocket 4.1 22:00:46 10° N 22:07:07 89° W 22:13:30 10° S
Cosmos 468 Rocket 4.0 22:04:24 10° N 22:09:30 63° ENE 22:13:00 20° SSE
Cosmos 1408 Rocket 3.5 22:05:42 10° S 22:10:00 90° NE 22:14:21 10° N
Cosmos 1300 3.6 22:06:43 10° NNE 22:10:12 32° E 22:11:40 24° ESE
Cosmos 2173 Rocket 4.0 22:05:46 10° N 22:11:58 89° W 22:18:13 10° S
Milstar 3 Cent rocket 4.0 22:06:02 10° WSW 22:12:06 37° S 22:19:28 18° SE
Cosmos 2123 Rocket 4.1 22:06:13 10° SSE 22:12:13 56° E 22:18:15 10° NNE
Cosmos 2221 3.7 22:09:36 10° NNW 22:13:46 43° W 22:17:54 10° SSW
Cosmos 1242 Rocket 3.4 22:11:57 10° NNW 22:15:33 50° W 22:18:48 12° S
MetOp-A 4.2 22:18:48 21° SSE 22:22:18 64° ENE 22:27:36 10° N
Cosmos 2061 Rocket 4.2 22:17:14 10° N 22:23:40 79° W 22:29:41 12° S
Helios 1B rocket 4.4 22:22:42 10° N 22:26:21 31° WNW 22:29:58 10° SW
GPS 2-05 Rocket1 2.4 22:23:36 10° W 22:26:42 84° N 22:27:52 35° E
SL-14 R/B 3.1 22:27:18 21° S 22:29:53 83° E 22:33:50 10° N
ARGOS 3.3 22:27:51 26° SE 22:30:52 59° ENE 22:36:11 10° N
Cosmos 1500 Rocket 3.8 22:29:52 29° SSE 22:31:47 51° E 22:36:07 10° NNE
Tiangong 1 2.6 22:33:09 10° NW 22:35:36 26° NNE 22:36:29 22° NE
SPOT 5 3.1 22:33:34 30° SE 22:35:48 57° ENE 22:40:50 10° N
ERBS 2.2 22:33:54 10° NW 22:37:17 75° NE 22:37:55 54° ESE
Lacrosse 5 1.9 22:32:32 10° NW 22:37:35 71° SW 22:39:52 32° SSE
Cosmos 1725 Rocket 3.9 22:32:04 10° N 22:38:19 73° E 22:41:57 26° SSE
Abrixas rocket 2.6 22:35:31 10° NW 22:38:42 53° NE 22:39:18 44° ENE
Cosmos 1603 3.8 22:33:26 10° NNW 22:39:02 70° WSW 22:42:21 25° S
Cosmos 1455 4.1 22:40:02 10° NE 22:42:15 17° ENE 22:42:15 17° ENE
EO 1 Delta rocket 3.9 22:42:59 36° SE 22:44:40 59° ENE 22:49:14 10° N
Cosmos 1328 4.2 22:42:50 20° SSW 22:45:31 63° W 22:49:32 10° N
H-2A R/B 2.4 22:46:14 34° SE 22:48:17 55° ENE 22:53:35 10° N
Cosmos 1943 3.2 22:45:18 10° NNW 22:50:58 71° ENE 22:53:12 37° SE
Cosmos 1151 Rocket 3.2 22:47:19 10° N 22:51:38 56° E 22:52:26 48° ESE
RESURS DK-1 3.4 22:48:03 10° NW 22:51:55 38° WSW 22:53:34 26° SSW
Cosmos 2058 2.8 22:53:41 52° SSE 22:54:33 69° E 22:58:45 10° NNE
Cosmos 1328 Rocket 3.7 22:50:18 10° NNW 22:54:35 68° W 22:56:13 36° SSW
Terra 2.9 22:54:55 27° E 22:55:41 29° ENE 22:59:46 10° N
Cosmos 304 Rocket 4.4 22:55:43 10° N 23:00:12 39° ENE 23:00:58 36° E
Cosmos 1515 Rocket 3.6 22:59:55 10° N 23:04:15 75° W 23:05:19 50° SSW
Delta 2 Rocket 4.1 22:58:36 10° W 23:04:18 85° N 23:07:43 26° E
H-2A R/B 3.5 23:04:25 24° ENE 23:04:26 24° ENE 23:07:51 10° NNE
Cosmos 1356 3.9 23:05:30 49° WSW 23:06:02 56° W 23:09:28 10° N
USA 245 3.8 23:09:16 45° SW 23:09:51 50° W 23:14:03 10° NNW
Cosmos 1354 Rocket 4.1 23:09:52 26° SSW 23:12:51 77° WNW 23:18:06 10° NNE
Cosmos 1763 Rocket 3.9 23:10:34 10° NNW 23:15:31 54° WSW 23:17:03 39° SSW
Cosmos 841 Rocket 3.6 23:11:33 10° NNW 23:16:46 71° WSW 23:18:05 49° S
Cosmos 1626 2.3 23:17:25 67° W 23:17:26 67° W 23:21:09 10° N
CZ-4C R/B 2.0 23:17:30 56° SE 23:17:48 57° ESE 23:23:21 10° NE
OAO 1 Rocket 4.4 23:12:51 10° W 23:18:11 68° SSW 23:18:52 60° SSE
Meteor 2-12 Rocket 4.3 23:12:32 10° N 23:18:37 80° E 23:20:24 48° SSE
Cosmos 2233 Rocket 4.0 23:20:11 10° N 23:26:21 74° W 23:28:32 42° SSW
Cosmos 1703 4.0 23:29:54 46° W 23:30:17 48° W 23:34:10 10° N
Cosmos 2278 Rocket 4.3 23:36:33 13° ENE 23:36:33 13° ENE 23:37:39 10° ENE
USA 234 3.6 23:30:14 10° NE 23:36:42 66° NW 23:43:09 10° WSW
Sich 1 3.8 23:43:18 43° NE 23:43:18 43° NE 23:46:24 10° NNE
Cosmos 2263 Rocket 4.0 23:37:39 10° WSW 23:42:25 29° WNW 23:47:15 10° N
SPOT 1/Viking Rocket 4.4 23:42:41 35° SW 23:43:50 40° W 23:48:40 10° NNW
SL-19 R/B 4.2 23:41:40 10° NNE 23:47:09 87° WNW 23:48:06 63° SSW
